Time,TemperatureF,DewpointF,PressureIn,WindDirection,WindDirectionDegrees,WindSpeedMPH,WindSpeedGustMPH,Humidity,HourlyPrecipIn,Conditions,Clouds,dailyrainin,SoftwareType,DateUTC
2013-05-16 00:02:00,61.0,27.0,-100.00,West,268,9.0,12.0,27,-99.99,,,-99.99,,2013-05-16 07:02:00,
2013-05-16 00:12:00,62.0,26.0,-100.00,WSW,258,8.0,12.0,25,-99.99,,,-99.99,,2013-05-16 07:12:00,
2013-05-16 00:24:00,61.0,26.0,-100.00,WSW,253,7.0,11.0,26,-99.99,,,-99.99,,2013-05-16 07:24:00,
2013-05-16 00:34:00,61.0,26.0,-100.00,WSW,248,8.0,10.0,26,-99.99,,,-99.99,,2013-05-16 07:34:00,
2013-05-16 00:44:00,61.0,27.0,-100.00,West,259,7.0,11.0,27,-99.99,,,-99.99,,2013-05-16 07:44:00,
2013-05-16 00:54:00,61.0,28.0,-100.00,WSW,252,7.0,12.0,28,-99.99,,,-99.99,,2013-05-16 07:54:00,
2013-05-16 01:03:00,61.0,28.0,-100.00,WSW,252,7.0,10.0,28,-99.99,,,-99.99,,2013-05-16 08:03:00,
2013-05-16 01:13:00,61.0,28.0,-100.00,WSW,247,7.0,11.0,28,-99.99,,,-99.99,,2013-05-16 08:13:00,
2013-05-16 01:23:00,61.0,28.0,-100.00,WSW,251,7.0,10.0,28,-99.99,,,-99.99,,2013-05-16 08:23:00,
2013-05-16 01:34:00,61.0,29.0,-100.00,West,259,8.0,11.0,29,-99.99,,,-99.99,,2013-05-16 08:34:00,
2013-05-16 01:44:00,60.0,28.0,-100.00,West,261,8.0,12.0,30,-99.99,,,-99.99,,2013-05-16 08:44:00,
2013-05-16 01:54:00,60.0,29.0,-100.00,West,269,8.0,12.0,31,-99.99,,,-99.99,,2013-05-16 08:54:00,
2013-05-16 02:04:00,60.0,30.0,-100.00,WSW,254,7.0,10.0,32,-99.99,,,-99.99,,2013-05-16 09:04:00,
2013-05-16 02:14:00,60.0,30.0,-100.00,WSW,254,7.0,10.0,32,-99.99,,,-99.99,,2013-05-16 09:14:00,
2013-05-16 02:24:00,59.0,31.0,-100.00,West,259,8.0,11.0,34,-99.99,,,-99.99,,2013-05-16 09:24:00,
2013-05-16 02:35:00,58.0,31.0,-100.00,WSW,253,8.0,11.0,35,-99.99,,,-99.99,,2013-05-16 09:35:00,
2013-05-16 02:45:00,58.0,31.0,-100.00,WSW,255,8.0,13.0,36,-99.99,,,-99.99,,2013-05-16 09:45:00,
2013-05-16 02:55:00,58.0,31.0,-100.00,West,259,7.0,13.0,36,-99.99,,,-99.99,,2013-05-16 09:55:00,
2013-05-16 03:04:00,58.0,32.0,-100.00,WSW,256,8.0,12.0,37,-99.99,,,-99.99,,2013-05-16 10:04:00,
2013-05-16 03:14:00,57.0,31.0,-100.00,WSW,249,6.0,8.0,37,-99.99,,,-99.99,,2013-05-16 10:14:00,
2013-05-16 03:24:00,57.0,31.0,-100.00,WSW,247,7.0,11.0,37,-99.99,,,-99.99,,2013-05-16 10:24:00,
2013-05-16 03:35:00,58.0,33.0,-100.00,West,266,7.0,9.0,38,-99.99,,,-99.99,,2013-05-16 10:35:00,
2013-05-16 03:45:00,58.0,32.0,-100.00,WSW,254,6.0,10.0,37,-99.99,,,-99.99,,2013-05-16 10:45:00,
2013-05-16 03:56:00,58.0,32.0,-100.00,WSW,258,4.0,6.0,37,-99.99,,,-99.99,,2013-05-16 10:56:00,
2013-05-16 04:05:00,58.0,32.0,-100.00,West,261,5.0,8.0,37,-99.99,,,-99.99,,2013-05-16 11:05:00,
2013-05-16 04:14:00,59.0,33.0,-100.00,West,267,5.0,7.0,37,-99.99,,,-99.99,,2013-05-16 11:14:00,
2013-05-16 04:25:00,59.0,32.0,-100.00,West,273,4.0,8.0,36,-99.99,,,-99.99,,2013-05-16 11:25:00,
2013-05-16 04:35:00,61.0,32.0,-100.00,West,271,7.0,9.0,33,-99.99,,,-99.99,,2013-05-16 11:35:00,
2013-05-16 04:46:00,61.0,32.0,-100.00,West,270,5.0,8.0,33,-99.99,,,-99.99,,2013-05-16 11:46:00,
2013-05-16 04:56:00,60.0,33.0,-100.00,West,259,4.0,5.0,36,-99.99,,,-99.99,,2013-05-16 11:56:00,
2013-05-16 05:06:00,59.0,33.0,-100.00,WSW,245,3.0,5.0,37,-99.99,,,-99.99,,2013-05-16 12:06:00,
2013-05-16 05:13:00,59.0,33.0,-100.00,WSW,240,3.0,6.0,37,-99.99,,,-99.99,,2013-05-16 12:13:00,
2013-05-16 05:23:00,59.0,33.0,-100.00,WSW,242,4.0,6.0,37,-99.99,,,-99.99,,2013-05-16 12:23:00,
2013-05-16 05:34:00,59.0,33.0,-100.00,WSW,244,4.0,8.0,38,-99.99,,,-99.99,,2013-05-16 12:34:00,
2013-05-16 05:45:00,59.0,34.0,-100.00,WSW,242,5.0,8.0,39,-99.99,,,-99.99,,2013-05-16 12:45:00,
2013-05-16 05:53:00,59.0,34.0,-100.00,West,259,5.0,9.0,39,-99.99,,,-99.99,,2013-05-16 12:53:00,
2013-05-16 06:04:00,60.0,34.0,-100.00,WSW,254,5.0,10.0,38,-99.99,,,-99.99,,2013-05-16 13:04:00,
2013-05-16 06:12:00,60.0,35.0,-100.00,West,279,5.0,9.0,39,-99.99,,,-99.99,,2013-05-16 13:12:00,
2013-05-16 06:26:00,59.0,34.0,-100.00,West,271,5.0,11.0,39,-99.99,,,-99.99,,2013-05-16 13:26:00,
2013-05-16 06:35:00,59.0,34.0,-100.00,WSW,257,6.0,8.0,39,-99.99,,,-99.99,,2013-05-16 13:35:00,
2013-05-16 06:43:00,60.0,35.0,-100.00,WSW,250,6.0,10.0,39,-99.99,,,-99.99,,2013-05-16 13:43:00,
2013-05-16 06:55:00,60.0,35.0,-100.00,West,271,5.0,10.0,39,-99.99,,,-99.99,,2013-05-16 13:55:00,
2013-05-16 07:05:00,60.0,35.0,-100.00,West,271,5.0,10.0,39,-99.99,,,-99.99,,2013-05-16 14:05:00,
2013-05-16 07:15:00,60.0,34.0,-100.00,West,270,7.0,10.0,38,-99.99,,,-99.99,,2013-05-16 14:15:00,
2013-05-16 07:23:00,60.0,35.0,-100.00,West,265,6.0,9.0,39,-99.99,,,-99.99,,2013-05-16 14:23:00,
2013-05-16 07:37:00,60.0,36.0,-100.00,WSW,253,6.0,9.0,40,-99.99,,,-99.99,,2013-05-16 14:37:00,
2013-05-16 07:47:00,61.0,36.0,-100.00,WSW,244,5.0,8.0,39,-99.99,,,-99.99,,2013-05-16 14:47:00,
2013-05-16 07:55:00,61.0,36.0,-100.00,WSW,248,5.0,7.0,39,-99.99,,,-99.99,,2013-05-16 14:55:00,
2013-05-16 08:08:00,61.0,36.0,-100.00,WSW,248,5.0,7.0,39,-99.99,,,-99.99,,2013-05-16 15:08:00,
2013-05-16 08:17:00,62.0,35.0,-100.00,SW,226,7.0,11.0,36,-99.99,,,-99.99,,2013-05-16 15:17:00,
2013-05-16 08:28:00,63.0,34.0,-100.00,SW,231,7.0,13.0,34,-99.99,,,-99.99,,2013-05-16 15:28:00,
2013-05-16 08:40:00,63.0,33.0,-100.00,WSW,242,8.0,12.0,33,-99.99,,,-99.99,,2013-05-16 15:40:00,
2013-05-16 08:50:00,64.0,31.0,-100.00,WSW,253,11.0,16.0,29,-99.99,,,-99.99,,2013-05-16 15:50:00,
2013-05-16 09:00:00,64.0,33.0,-100.00,WSW,242,8.0,14.0,31,-99.99,,,-99.99,,2013-05-16 16:00:00,
2013-05-16 09:09:00,64.0,32.0,-100.00,SW,236,10.0,16.0,30,-99.99,,,-99.99,,2013-05-16 16:09:00,
2013-05-16 09:19:00,64.0,32.0,-100.00,WSW,238,9.0,15.0,30,-99.99,,,-99.99,,2013-05-16 16:19:00,
2013-05-16 09:30:00,65.0,30.0,-100.00,WSW,237,10.0,15.0,27,-99.99,,,-99.99,,2013-05-16 16:30:00,
2013-05-16 09:40:00,65.0,-99.9,-100.00,WSW,237,10.0,15.0,27,-99.99,,,-99.99,,2013-05-16 16:40:00,
2013-05-16 09:50:00,66.0,29.0,-100.00,WSW,239,11.0,20.0,25,-99.99,,,-99.99,,2013-05-16 16:50:00,
2013-05-16 10:00:00,66.0,27.0,-100.00,WSW,240,9.0,17.0,23,-99.99,,,-99.99,,2013-05-16 17:00:00,
2013-05-16 10:10:00,66.0,28.0,-100.00,WSW,253,11.0,18.0,24,-99.99,,,-99.99,,2013-05-16 17:10:00,
2013-05-16 10:20:00,66.0,30.0,-100.00,WSW,249,11.0,18.0,26,-99.99,,,-99.99,,2013-05-16 17:20:00,
2013-05-16 10:30:00,66.0,30.0,-100.00,WSW,249,11.0,18.0,26,-99.99,,,-99.99,,2013-05-16 17:30:00,
2013-05-16 10:40:00,67.0,28.0,-100.00,WSW,245,10.0,21.0,23,-99.99,,,-99.99,,2013-05-16 17:40:00,
2013-05-16 10:50:00,66.0,-99.9,-100.00,WSW,242,12.0,21.0,25,-99.99,,,-99.99,,2013-05-16 17:50:00,
2013-05-16 11:00:00,67.0,-99.9,-100.00,WSW,257,11.0,18.0,26,-99.99,,,-99.99,,2013-05-16 18:00:00,
2013-05-16 11:10:00,67.0,31.0,-100.00,WSW,256,12.0,22.0,26,-99.99,,,-99.99,,2013-05-16 18:10:00,
2013-05-16 11:20:00,67.0,32.0,-100.00,WSW,243,11.0,20.0,27,-99.99,,,-99.99,,2013-05-16 18:20:00,
2013-05-16 11:30:00,-999.0,-99.9,-100.00,WSW,252,12.0,24.0,26,-99.99,,,-99.99,,2013-05-16 18:30:00,
2013-05-16 11:40:00,-999.0,-99.9,-100.00,WSW,251,15.0,23.0,21,-99.99,,,-99.99,,2013-05-16 18:40:00,
2013-05-16 11:50:00,-999.0,-99.9,-100.00,WSW,248,14.0,22.0,19,-99.99,,,-99.99,,2013-05-16 18:50:00,
2013-05-16 12:00:00,-999.0,-99.9,-100.00,WSW,252,15.0,24.0,16,-99.99,,,-99.99,,2013-05-16 19:00:00,
2013-05-16 12:10:00,68.0,17.0,-100.00,WSW,252,15.0,23.0,14,-99.99,,,-99.99,,2013-05-16 19:10:00,
2013-05-16 12:20:00,68.0,12.0,-100.00,WSW,249,14.0,21.0,11,-99.99,,,-99.99,,2013-05-16 19:20:00,
2013-05-16 12:30:00,68.0,12.0,-100.00,WSW,249,14.0,21.0,11,-99.99,,,-99.99,,2013-05-16 19:30:00,
2013-05-16 12:40:00,68.0,-99.9,-100.00,WSW,249,16.0,25.0,11,-99.99,,,-99.99,,2013-05-16 19:40:00,
2013-05-16 12:50:00,-999.0,-99.9,-100.00,WSW,243,14.0,22.0,11,-99.99,,,-99.99,,2013-05-16 19:50:00,
2013-05-16 13:00:00,68.0,-99.9,-100.00,WSW,247,14.0,26.0,15,-99.99,,,-99.99,,2013-05-16 20:00:00,
2013-05-16 13:10:00,-999.0,-99.9,-100.00,WSW,251,15.0,22.0,16,-99.99,,,-99.99,,2013-05-16 20:10:00,
2013-05-16 13:20:00,68.0,-99.9,-100.00,WSW,258,16.0,24.0,21,-99.99,,,-99.99,,2013-05-16 20:20:00,
2013-05-16 13:30:00,68.0,32.0,-100.00,WSW,248,14.0,23.0,26,-99.99,,,-99.99,,2013-05-16 20:30:00,
2013-05-16 13:40:00,-999.0,-99.9,-100.00,WSW,253,15.0,24.0,28,-99.99,,,-99.99,,2013-05-16 20:40:00,
2013-05-16 13:50:00,67.0,35.0,-100.00,WSW,256,16.0,25.0,30,-99.99,,,-99.99,,2013-05-16 20:50:00,
2013-05-16 14:00:00,67.0,36.0,-100.00,West,260,16.0,24.0,32,-99.99,,,-99.99,,2013-05-16 21:00:00,
2013-05-16 14:10:00,67.0,-99.9,-100.00,WSW,255,15.0,24.0,30,-99.99,,,-99.99,,2013-05-16 21:10:00,
2013-05-16 14:20:00,67.0,35.0,-100.00,WSW,255,15.0,23.0,30,-99.99,,,-99.99,,2013-05-16 21:20:00,
2013-05-16 14:29:00,66.0,35.0,-100.00,WSW,255,15.0,26.0,32,-99.99,,,-99.99,,2013-05-16 21:29:00,
2013-05-16 14:30:00,67.0,38.0,-100.00,WSW,255,14.0,25.0,34,-99.99,,,-99.99,,2013-05-16 21:30:00,
2013-05-16 14:38:00,67.0,36.0,-100.00,West,264,15.0,24.0,32,-99.99,,,-99.99,,2013-05-16 21:38:00,
2013-05-16 14:50:00,66.0,-99.9,-100.00,West,259,15.0,24.0,35,-99.99,,,-99.99,,2013-05-16 21:50:00,
2013-05-16 15:00:00,-999.0,-99.9,-100.00,WSW,253,15.0,23.0,34,-99.99,,,-99.99,,2013-05-16 22:00:00,
2013-05-16 15:07:00,67.0,38.0,-100.00,WSW,255,14.0,25.0,34,-99.99,,,-99.99,,2013-05-16 22:07:00,
2013-05-16 15:20:00,67.0,38.0,-100.00,WSW,255,14.0,25.0,34,-99.99,,,-99.99,,2013-05-16 22:20:00,
2013-05-16 15:50:00,66.0,42.0,-100.00,WSW,257,15.0,23.0,42,-99.99,,,-99.99,,2013-05-16 22:50:00,
2013-05-16 16:00:00,66.0,42.0,-100.00,WSW,257,15.0,23.0,42,-99.99,,,-99.99,,2013-05-16 23:00:00,
2013-05-16 16:06:00,66.0,42.0,-100.00,West,259,15.0,22.0,42,-99.99,,,-99.99,,2013-05-16 23:06:00,
2013-05-16 16:16:00,66.0,42.0,-100.00,West,259,15.0,22.0,42,-99.99,,,-99.99,,2013-05-16 23:16:00,
2013-05-16 16:24:00,66.0,42.0,-100.00,West,259,15.0,22.0,42,-99.99,,,-99.99,,2013-05-16 23:24:00,
2013-05-16 16:34:00,65.0,42.0,-100.00,WSW,254,14.0,20.0,43,-99.99,,,-99.99,,2013-05-16 23:34:00,
2013-05-16 16:45:00,65.0,41.0,-100.00,WSW,241,12.0,21.0,42,-99.99,,,-99.99,,2013-05-16 23:45:00,
2013-05-16 16:54:00,65.0,41.0,-100.00,WSW,242,11.0,22.0,41,-99.99,,,-99.99,,2013-05-16 23:54:00,
2013-05-16 17:02:00,65.0,43.0,-100.00,WSW,246,13.0,22.0,45,-99.99,,,-99.99,,2013-05-17 00:02:00,
2013-05-16 17:13:00,64.0,42.0,-100.00,WSW,245,13.0,24.0,45,-99.99,,,-99.99,,2013-05-17 00:13:00,
2013-05-16 17:22:00,64.0,44.0,-100.00,WSW,251,13.0,20.0,48,-99.99,,,-99.99,,2013-05-17 00:22:00,
2013-05-16 17:33:00,63.0,44.0,-100.00,WSW,244,12.0,26.0,50,-99.99,,,-99.99,,2013-05-17 00:33:00,
2013-05-16 17:43:00,63.0,44.0,-100.00,WSW,246,13.0,23.0,49,-99.99,,,-99.99,,2013-05-17 00:43:00,
2013-05-16 17:52:00,63.0,45.0,-100.00,WSW,255,12.0,20.0,51,-99.99,,,-99.99,,2013-05-17 00:52:00,
2013-05-16 18:03:00,62.0,44.0,-100.00,WSW,247,12.0,21.0,52,-99.99,,,-99.99,,2013-05-17 01:03:00,
2013-05-16 18:12:00,62.0,45.0,-100.00,WSW,257,13.0,19.0,54,-99.99,,,-99.99,,2013-05-17 01:12:00,
2013-05-16 18:23:00,61.0,45.0,-100.00,WSW,247,12.0,19.0,55,-99.99,,,-99.99,,2013-05-17 01:23:00,
2013-05-16 18:31:00,61.0,45.0,-100.00,WSW,254,12.0,20.0,55,-99.99,,,-99.99,,2013-05-17 01:31:00,
2013-05-16 18:43:00,61.0,44.0,-100.00,WSW,250,11.0,20.0,53,-99.99,,,-99.99,,2013-05-17 01:43:00,
2013-05-16 18:52:00,60.0,43.0,-100.00,WSW,246,11.0,21.0,54,-99.99,,,-99.99,,2013-05-17 01:52:00,
2013-05-16 19:02:00,60.0,42.0,-100.00,WSW,251,13.0,21.0,52,-99.99,,,-99.99,,2013-05-17 02:02:00,
2013-05-16 19:11:00,60.0,41.0,-100.00,WSW,242,11.0,17.0,49,-99.99,,,-99.99,,2013-05-17 02:11:00,
2013-05-16 19:21:00,59.0,40.0,-100.00,WSW,245,10.0,20.0,50,-99.99,,,-99.99,,2013-05-17 02:21:00,
2013-05-16 19:32:00,58.0,44.0,-100.00,WSW,245,10.0,16.0,59,-99.99,,,-99.99,,2013-05-17 02:32:00,
2013-05-16 19:41:00,58.0,46.0,-100.00,WSW,251,10.0,18.0,64,-99.99,,,-99.99,,2013-05-17 02:41:00,
2013-05-16 19:52:00,56.0,45.0,-100.00,WSW,244,9.0,14.0,67,-99.99,,,-99.99,,2013-05-17 02:52:00,
2013-05-16 20:01:00,55.0,46.0,-100.00,SW,225,8.0,14.0,71,-99.99,,,-99.99,,2013-05-17 03:01:00,
2013-05-16 20:11:00,54.0,47.0,-100.00,SW,232,9.0,15.0,77,-99.99,,,-99.99,,2013-05-17 03:11:00,
2013-05-16 20:22:00,53.0,47.0,-100.00,WSW,239,7.0,12.0,79,-99.99,,,-99.99,,2013-05-17 03:22:00,
2013-05-16 20:33:00,53.0,45.0,-100.00,WSW,251,7.0,11.0,75,-99.99,,,-99.99,,2013-05-17 03:33:00,
2013-05-16 20:43:00,53.0,42.0,-100.00,WSW,248,4.0,7.0,65,-99.99,,,-99.99,,2013-05-17 03:43:00,
2013-05-16 20:53:00,53.0,38.0,-100.00,WNW,282,2.0,4.0,56,-99.99,,,-99.99,,2013-05-17 03:53:00,
2013-05-16 21:02:00,53.0,34.0,-100.00,SW,225,1.0,4.0,49,-99.99,,,-99.99,,2013-05-17 04:02:00,
2013-05-16 21:13:00,53.0,32.0,-100.00,SW,219,3.0,6.0,44,-99.99,,,-99.99,,2013-05-17 04:13:00,
2013-05-16 21:23:00,55.0,21.0,-100.00,West,274,4.0,6.0,26,-99.99,,,-99.99,,2013-05-17 04:23:00,
2013-05-16 21:33:00,56.0,20.0,-100.00,WSW,244,4.0,6.0,24,-99.99,,,-99.99,,2013-05-17 04:33:00,
2013-05-16 21:43:00,56.0,18.0,-100.00,WSW,257,6.0,11.0,22,-99.99,,,-99.99,,2013-05-17 04:43:00,
2013-05-16 21:53:00,56.0,21.0,-100.00,WSW,243,6.0,9.0,25,-99.99,,,-99.99,,2013-05-17 04:53:00,
2013-05-16 22:02:00,55.0,23.0,-100.00,WSW,248,5.0,9.0,29,-99.99,,,-99.99,,2013-05-17 05:02:00,
2013-05-16 22:13:00,55.0,25.0,-100.00,WSW,258,5.0,8.0,31,-99.99,,,-99.99,,2013-05-17 05:13:00,
2013-05-16 22:21:00,55.0,26.0,-100.00,WSW,254,5.0,7.0,32,-99.99,,,-99.99,,2013-05-17 05:21:00,
2013-05-16 22:32:00,55.0,27.0,-100.00,WSW,246,4.0,7.0,34,-99.99,,,-99.99,,2013-05-17 05:32:00,
2013-05-16 22:42:00,55.0,30.0,-100.00,WSW,250,5.0,7.0,38,-99.99,,,-99.99,,2013-05-17 05:42:00,
2013-05-16 22:52:00,54.0,31.0,-100.00,WSW,241,4.0,7.0,41,-99.99,,,-99.99,,2013-05-17 05:52:00,
2013-05-16 23:01:00,54.0,33.0,-100.00,WSW,249,4.0,7.0,44,-99.99,,,-99.99,,2013-05-17 06:01:00,
2013-05-16 23:11:00,54.0,33.0,-100.00,WSW,244,3.0,6.0,44,-99.99,,,-99.99,,2013-05-17 06:11:00,
2013-05-16 23:21:00,54.0,34.0,-100.00,West,262,3.0,5.0,46,-99.99,,,-99.99,,2013-05-17 06:21:00,
2013-05-16 23:32:00,53.0,34.0,-100.00,WSW,258,3.0,6.0,48,-99.99,,,-99.99,,2013-05-17 06:32:00,
2013-05-16 23:42:00,53.0,34.0,-100.00,SSW,206,5.0,8.0,49,-99.99,,,-99.99,,2013-05-17 06:42:00,
2013-05-16 23:51:00,53.0,34.0,-100.00,SW,215,4.0,8.0,49,-99.99,,,-99.99,,2013-05-17 06:51:00,